�N����,����,�~����,�C��,���x,�C��,����,���ϕ���,�ő�u�ԕ���,�ő厞����,���˗�,�I�_���x,�n�����x,�ő啗���N��,DTYPE
"23/12/17","00:10",0.0,9.9,60.3,1009.0,284.8,3.2,4.7,279.6,0.00,2.6,12.6,"00:06:40",1
"23/12/17","00:20",0.0,9.8,61.4,1009.0,292.0,3.2,5.4,304.1,0.00,2.8,12.6,"00:14:24",1
"23/12/17","00:30",0.0,9.7,62.7,1009.0,293.7,3.2,6.0,316.2,0.00,3.0,12.4,"00:28:40",1
"23/12/17","00:40",0.0,9.6,63.6,1009.3,283.7,3.1,6.3,258.5,0.00,3.1,12.4,"00:36:40",1
"23/12/17","00:50",0.0,9.4,64.3,1009.0,296.2,2.8,4.9,305.5,0.00,3.0,12.4,"00:45:28",1
"23/12/17","01:00",0.0,9.3,64.6,1009.5,283.2,3.0,8.2,306.5,0.00,3.0,12.6,"00:56:56",1
"23/12/17","01:10",0.0,9.2,65.2,1009.7,282.5,3.2,5.9,263.6,0.00,3.1,12.4,"01:02:32",1
"23/12/17","01:20",0.0,8.8,66.3,1009.7,287.9,3.1,5.4,264.8,0.00,2.9,12.2,"01:14:32",1
"23/12/17","01:30",0.0,8.6,67.0,1009.7,285.2,3.5,5.9,285.7,0.00,2.9,12.3,"01:28:24",1
"23/12/17","01:40",0.0,8.4,67.0,1010.2,293.1,3.5,8.3,315.6,0.00,2.7,12.3,"01:36:24",1
"23/12/17","01:50",0.0,8.4,66.0,1010.4,283.3,4.4,8.2,310.6,0.00,2.5,12.3,"01:46:52",1
"23/12/17","02:00",0.0,8.2,64.6,1010.4,288.2,4.6,6.3,312.4,0.00,2.0,12.2,"01:53:40",1
"23/12/17","02:10",0.0,8.1,63.1,1010.7,303.0,4.2,7.9,340.9,0.00,1.5,12.2,"02:01:44",1
"23/12/17","02:20",0.0,7.9,62.9,1010.9,297.8,4.5,8.5,302.6,0.00,1.3,12.1,"02:17:40",1
"23/12/17","02:30",0.0,7.7,63.2,1011.2,299.4,4.0,6.6,333.4,0.00,1.2,12.2,"02:27:04",1
"23/12/17","02:40",0.0,7.6,65.0,1011.4,305.5,3.9,9.4,323.8,0.00,1.5,12.2,"02:39:48",1
"23/12/17","02:50",0.0,7.2,68.2,1011.4,323.9,4.9,8.3,355.1,0.00,1.8,12.0,"02:48:08",1
"23/12/17","03:00",0.0,6.5,69.4,1011.6,333.9,5.5,9.3,349.1,0.00,1.3,12.0,"02:56:34",1
"23/12/17","03:10",0.0,6.2,69.0,1011.4,331.2,6.9,13.2,322.7,0.00,1.0,11.9,"03:07:54",1
"23/12/17","03:20",0.0,6.2,67.1,1011.4,326.5,6.2,12.1,312.5,0.00,0.6,11.8,"03:10:36",1
"23/12/17","03:30",0.0,6.6,62.7,1011.4,322.2,7.5,12.5,322.7,0.00,0.0,12.0,"03:27:20",1
"23/12/17","03:40",0.0,6.4,64.6,1011.4,311.6,5.9,10.3,322.3,0.00,0.3,11.8,"03:31:18",1
"23/12/17","03:50",0.0,6.2,64.8,1011.2,327.8,5.6,10.9,312.9,0.00,0.1,11.6,"03:44:18",1
"23/12/17","04:00",0.0,6.2,63.5,1011.2,323.1,6.4,10.5,341.2,0.00,-0.2,11.9,"03:54:56",1
"23/12/17","04:10",0.0,6.0,64.7,1011.2,313.2,5.1,8.7,329.0,0.00,-0.1,11.8,"04:00:16",1
"23/12/17","04:20",0.0,5.8,65.6,1011.4,312.2,4.5,9.1,344.2,0.00,-0.1,11.6,"04:12:58",1
"23/12/17","04:30",0.0,5.6,65.3,1011.6,318.7,4.7,8.0,329.3,0.00,-0.4,11.7,"04:28:24",1
"23/12/17","04:40",0.0,5.6,63.2,1011.6,308.5,4.5,9.7,330.6,0.00,-0.8,11.5,"04:38:06",1
"23/12/17","04:50",0.0,5.4,60.5,1011.6,310.1,5.4,10.8,260.2,0.00,-1.6,11.6,"04:48:14",1
"23/12/17","05:00",0.0,5.2,60.7,1011.9,308.4,4.5,6.7,318.5,0.00,-1.7,11.7,"04:54:12",1
"23/12/17","05:10",0.0,5.1,60.4,1011.9,319.0,4.6,7.3,306.4,0.00,-1.9,11.5,"05:08:40",1
"23/12/17","05:20",0.0,5.0,59.0,1012.1,311.4,5.2,8.1,322.5,0.00,-2.3,11.5,"05:10:18",1
"23/12/17","05:30",0.0,4.9,58.2,1012.1,317.5,5.1,9.5,318.3,0.00,-2.6,11.3,"05:25:58",1
"23/12/17","05:40",0.0,4.7,58.4,1012.1,307.7,3.9,7.4,335.5,0.00,-2.7,11.3,"05:33:36",1
"23/12/17","05:50",0.0,4.7,58.6,1012.1,321.6,4.6,7.8,318.9,0.00,-2.7,11.3,"05:47:26",1
"23/12/17","06:00",0.0,4.7,57.8,1012.6,326.2,5.7,8.0,327.9,0.00,-2.9,11.3,"05:55:06",1
"23/12/17","06:10",0.0,4.5,57.7,1012.8,304.9,4.5,9.4,313.9,0.00,-3.1,11.2,"06:01:56",1
"23/12/17","06:20",0.0,4.3,58.3,1012.8,307.6,3.6,6.3,330.5,0.00,-3.1,11.1,"06:19:50",1
"23/12/17","06:30",0.0,4.5,57.3,1013.0,318.8,5.1,11.4,318.4,0.00,-3.2,11.1,"06:29:18",1
"23/12/17","06:40",0.0,4.4,57.3,1013.5,306.9,4.4,7.3,303.0,0.00,-3.3,11.0,"06:30:16",1
"23/12/17","06:50",0.0,4.2,58.1,1013.0,303.4,3.1,4.7,329.7,0.00,-3.3,11.0,"06:46:12",1
"23/12/17","07:00",0.0,4.0,59.1,1013.8,302.0,2.7,4.2,339.4,0.00,-3.2,11.1,"06:59:48",1
"23/12/17","07:10",0.0,3.9,60.0,1014.0,298.3,2.7,5.2,324.7,0.00,-3.1,10.8,"07:09:16",1
"23/12/17","07:20",0.0,3.9,61.0,1014.0,296.0,2.3,3.6,262.1,0.00,-2.9,11.0,"07:10:34",1
"23/12/17","07:30",0.0,3.8,62.1,1013.8,295.8,2.2,3.3,267.0,0.00,-2.7,10.8,"07:20:58",1
"23/12/17","07:40",0.0,3.8,62.5,1014.0,291.1,2.6,5.1,282.3,0.00,-2.7,10.8,"07:39:20",1
"23/12/17","07:50",0.0,4.0,62.1,1014.0,293.9,3.6,4.8,314.8,0.02,-2.6,10.7,"07:41:44",1
"23/12/17","08:00",0.0,4.2,61.8,1014.5,302.5,3.2,4.9,306.9,0.03,-2.4,10.6,"07:58:16",1
"23/12/17","08:10",0.0,4.3,61.9,1014.5,282.0,2.7,4.2,314.5,0.06,-2.3,10.7,"08:02:22",1
"23/12/17","08:20",0.0,4.7,62.3,1014.5,268.3,2.6,4.5,286.6,0.10,-1.8,10.5,"08:10:08",1
"23/12/17","08:30",0.0,4.6,64.8,1014.5,249.5,3.0,5.6,239.7,0.13,-1.4,10.6,"08:24:56",1
"23/12/17","08:40",0.0,4.7,66.6,1014.2,256.1,3.5,6.7,261.4,0.16,-0.9,10.6,"08:38:16",1
"23/12/17","08:50",0.0,4.7,66.8,1015.4,248.5,3.7,5.9,237.4,0.20,-0.9,10.5,"08:40:56",1
"23/12/17","09:00",0.0,4.8,66.4,1015.2,251.5,3.6,5.7,246.9,0.23,-0.9,10.6,"08:54:12",1
"23/12/17","09:10",0.0,5.0,66.3,1015.9,238.8,3.7,6.5,241.6,0.27,-0.7,10.5,"09:00:58",1
"23/12/17","09:20",0.0,5.3,65.4,1015.6,244.0,3.2,7.2,229.4,0.23,-0.6,10.5,"09:12:00",1
"23/12/17","09:30",0.0,5.1,64.7,1016.1,263.0,2.7,5.2,226.8,0.12,-1.0,10.6,"09:24:14",1
"23/12/17","09:40",0.0,5.2,62.2,1016.1,297.7,3.2,6.6,307.9,0.13,-1.4,10.5,"09:36:16",1
"23/12/17","09:50",0.0,5.7,60.0,1016.4,269.7,3.0,6.2,237.5,0.29,-1.4,10.4,"09:43:20",1
"23/12/17","10:00",0.0,5.9,57.8,1016.1,283.4,3.2,5.9,244.6,0.31,-1.7,10.5,"09:55:04",1
"23/12/17","10:10",0.0,6.4,56.3,1016.1,289.7,2.8,4.7,326.1,0.38,-1.6,10.6,"10:08:06",1
"23/12/17","10:20",0.0,6.2,54.5,1016.4,324.0,3.5,6.7,344.8,0.33,-2.2,10.5,"10:18:28",1
"23/12/17","10:30",0.0,5.7,53.5,1015.9,330.0,4.9,8.2,348.0,0.16,-3.0,10.5,"10:20:08",1
"23/12/17","10:40",0.0,6.0,55.0,1015.9,322.3,4.4,9.3,336.1,0.26,-2.3,10.5,"10:30:24",1
"23/12/17","10:50",0.0,5.8,52.4,1016.1,310.8,3.5,5.9,325.3,0.16,-3.1,10.5,"10:48:00",1
"23/12/17","11:00",0.0,5.7,53.1,1016.1,323.6,4.0,8.1,344.4,0.16,-3.1,10.4,"10:59:52",1
"23/12/17","11:10",0.0,6.0,53.8,1015.9,294.5,3.9,7.5,332.5,0.19,-2.6,10.4,"11:01:04",1
"23/12/17","11:20",0.0,6.3,52.2,1015.4,282.0,2.7,4.4,244.6,0.26,-2.7,10.5,"11:10:24",1
"23/12/17","11:30",0.0,7.0,50.4,1014.9,290.9,3.0,5.7,326.1,0.43,-2.6,10.6,"11:21:12",1
"23/12/17","11:40",0.0,7.1,47.9,1015.6,275.5,3.2,4.8,325.7,0.41,-3.1,10.8,"11:33:12",1
"23/12/17","11:50",0.0,6.7,46.7,1015.4,283.2,3.4,5.4,303.8,0.31,-3.9,10.5,"11:43:02",1
"23/12/17","12:00",0.0,6.7,47.3,1015.6,298.4,3.4,5.9,269.9,0.26,-3.7,10.7,"11:52:02",1
"23/12/17","12:10",0.0,7.0,47.4,1015.4,282.2,3.5,7.8,318.1,0.37,-3.4,10.5,"12:00:24",1
"23/12/17","12:20",0.0,6.8,47.8,1015.4,300.2,3.4,7.2,235.3,0.23,-3.5,10.6,"12:16:48",1
"23/12/17","12:30",0.0,6.6,46.6,1015.2,296.9,4.0,7.0,323.3,0.32,-4.0,10.6,"12:23:44",1
"23/12/17","12:40",0.0,7.2,45.6,1015.4,284.7,3.5,6.7,355.0,0.47,-3.7,10.6,"12:35:28",1
"23/12/17","12:50",0.0,7.7,44.4,1014.9,278.2,3.4,5.0,278.4,0.50,-3.6,10.9,"12:48:36",1
"23/12/17","13:00",0.0,7.6,42.7,1015.6,297.6,4.1,8.2,319.2,0.53,-4.2,10.7,"12:59:36",1
"23/12/17","13:10",0.0,7.5,42.2,1015.6,289.5,4.5,7.8,335.8,0.48,-4.5,11.0,"13:08:08",1
"23/12/17","13:20",0.0,7.1,41.2,1015.6,297.0,5.1,9.1,304.2,0.40,-5.2,11.0,"13:18:44",1
"23/12/17","13:30",0.0,6.3,42.9,1015.4,307.1,5.6,11.3,350.4,0.12,-5.3,11.1,"13:27:50",1
"23/12/17","13:40",0.0,7.2,43.7,1014.9,296.6,4.1,7.0,345.6,0.43,-4.3,11.0,"13:30:16",1
"23/12/17","13:50",0.0,7.6,44.1,1015.4,309.6,3.6,6.0,320.8,0.36,-3.8,11.0,"13:48:30",1
"23/12/17","14:00",0.0,7.0,43.0,1015.6,327.5,4.6,8.5,308.3,0.29,-4.7,11.1,"13:59:52",1
"23/12/17","14:10",0.0,6.8,44.0,1015.4,309.6,4.9,8.8,326.2,0.28,-4.6,11.2,"14:08:10",1
"23/12/17","14:20",0.0,6.2,44.8,1015.9,311.0,5.1,8.6,339.4,0.13,-4.9,10.8,"14:18:00",1
"23/12/17","14:30",0.0,6.2,46.4,1015.9,326.0,5.4,8.7,339.4,0.12,-4.4,11.0,"14:23:12",1
"23/12/17","14:40",0.0,6.3,46.6,1016.1,292.4,3.9,8.5,332.9,0.10,-4.3,11.1,"14:30:32",1
"23/12/17","14:50",0.0,6.4,46.6,1016.1,295.6,3.7,6.4,292.1,0.10,-4.2,11.1,"14:43:52",1
"23/12/17","15:00",0.0,6.4,47.3,1015.9,309.3,3.6,5.7,316.1,0.12,-4.0,11.1,"14:55:28",1
"23/12/17","15:10",0.0,6.2,47.6,1016.1,311.8,4.1,6.8,312.1,0.09,-4.1,11.2,"15:04:56",1
"23/12/17","15:20",0.0,5.8,48.5,1016.1,318.0,3.9,7.8,334.2,0.04,-4.2,11.0,"15:14:08",1
"23/12/17","15:30",0.0,5.7,50.0,1016.4,320.4,4.2,7.0,334.5,0.06,-3.9,11.1,"15:20:08",1
"23/12/17","15:40",0.0,5.5,49.7,1016.1,321.1,3.5,6.2,346.0,0.02,-4.1,11.0,"15:34:04",1
"23/12/17","15:50",0.0,5.6,50.3,1016.4,318.9,4.0,7.2,325.0,0.05,-3.9,10.9,"15:42:48",1
"23/12/17","16:00",0.0,5.7,49.5,1016.4,317.3,3.9,9.0,320.0,0.05,-4.0,10.9,"15:52:40",1
"23/12/17","16:10",0.0,5.7,49.5,1016.6,324.3,3.5,5.9,331.4,0.04,-4.0,10.8,"16:05:12",1
"23/12/17","16:20",0.0,5.4,51.0,1016.6,318.6,3.5,5.7,331.5,0.01,-3.9,10.9,"16:16:48",1
"23/12/17","16:30",0.0,5.2,51.8,1016.8,317.1,3.9,7.9,260.8,0.00,-3.9,10.8,"16:24:28",1
"23/12/17","16:40",0.0,5.0,53.4,1016.8,329.3,4.1,7.8,331.7,0.00,-3.6,10.8,"16:36:50",1
"23/12/17","16:50",0.0,4.8,52.9,1016.8,305.1,3.6,6.3,319.8,0.00,-4.0,10.8,"16:40:52",1
"23/12/17","17:00",0.0,4.5,54.3,1016.8,320.5,3.0,6.2,310.8,0.00,-3.9,10.9,"16:50:02",1
"23/12/17","17:10",0.0,4.6,53.2,1017.1,328.7,4.7,9.1,345.8,0.00,-4.1,10.8,"17:07:50",1
"23/12/17","17:20",0.0,4.3,54.2,1017.1,328.3,4.0,7.4,322.3,0.00,-4.1,10.7,"17:16:32",1
"23/12/17","17:30",0.0,4.1,55.5,1017.3,317.4,4.1,7.1,317.6,0.00,-4.0,10.7,"17:27:12",1
"23/12/17","17:40",0.0,3.8,57.1,1017.3,334.0,2.8,4.1,306.7,0.00,-3.9,10.6,"17:38:00",1
"23/12/17","17:50",0.0,3.7,58.0,1017.3,322.5,2.6,4.0,316.8,0.00,-3.8,10.6,"17:42:12",1
"23/12/17","18:00",0.0,3.8,57.9,1017.8,317.1,3.5,7.0,347.4,0.00,-3.7,10.5,"17:55:22",1
"23/12/17","18:10",0.0,3.6,58.3,1017.8,311.6,2.3,3.4,312.7,0.00,-3.8,10.7,"18:09:12",1
"23/12/17","18:20",0.0,3.4,59.1,1017.8,312.3,2.5,3.4,310.0,0.00,-3.8,10.6,"18:17:36",1
"23/12/17","18:30",0.0,3.3,59.5,1018.0,293.4,2.5,4.2,310.5,0.00,-3.8,10.4,"18:22:42",1
"23/12/17","18:40",0.0,3.2,59.7,1018.2,292.6,2.5,3.7,263.2,0.00,-3.8,10.4,"18:32:32",1
"23/12/17","18:50",0.0,3.0,60.6,1018.2,282.7,2.1,2.9,290.2,0.00,-3.8,10.2,"18:40:08",1
"23/12/17","19:00",0.0,3.0,61.3,1018.7,297.1,2.3,4.8,319.3,0.00,-3.7,10.2,"18:57:14",1
"23/12/17","19:10",0.0,2.8,61.9,1018.5,303.0,2.0,3.6,304.9,0.00,-3.7,10.2,"19:03:12",1
"23/12/17","19:20",0.0,3.0,61.6,1018.7,292.1,2.3,4.3,306.8,0.00,-3.6,10.3,"19:15:44",1
"23/12/17","19:30",0.0,2.9,61.9,1019.0,293.9,2.3,3.7,301.3,0.00,-3.6,10.1,"19:24:32",1
"23/12/17","19:40",0.0,2.8,62.5,1018.7,296.8,1.8,3.2,314.5,0.00,-3.6,10.1,"19:30:52",1
"23/12/17","19:50",0.0,2.6,63.3,1018.7,285.0,1.6,2.5,286.1,0.00,-3.6,10.0,"19:47:04",1
"23/12/17","20:00",0.0,2.5,64.7,1018.7,268.6,2.0,3.9,257.7,0.00,-3.4,10.1,"19:55:20",1
"23/12/17","20:10",0.0,2.5,65.5,1019.0,266.3,2.3,3.7,241.8,0.00,-3.3,10.0,"20:04:28",1
"23/12/17","20:20",0.0,2.3,66.3,1018.7,271.8,1.7,2.6,252.2,0.00,-3.3,9.9,"20:15:14",1
"23/12/17","20:30",0.0,2.3,67.1,1019.0,256.9,2.2,3.1,245.1,0.00,-3.1,10.1,"20:23:36",1
"23/12/17","20:40",0.0,2.1,67.5,1019.2,270.7,2.0,3.2,264.1,0.00,-3.2,9.8,"20:39:52",1
"23/12/17","20:50",0.0,2.1,67.5,1019.2,274.5,2.2,3.6,292.7,0.00,-3.2,9.7,"20:43:28",1
"23/12/17","21:00",0.0,2.0,68.1,1019.9,274.1,1.7,2.8,266.3,0.00,-3.2,9.7,"20:59:56",1
"23/12/17","21:10",0.0,1.8,68.3,1019.7,281.1,1.3,2.4,254.5,0.00,-3.4,9.9,"21:02:16",1
"23/12/17","21:20",0.0,1.7,68.9,1019.7,266.1,1.8,3.4,246.7,0.00,-3.4,9.7,"21:15:52",1
"23/12/17","21:30",0.0,1.7,68.9,1019.9,272.6,1.6,2.7,261.7,0.00,-3.4,9.7,"21:29:06",1
"23/12/17","21:40",0.0,1.7,68.4,1019.9,265.1,2.1,3.2,247.8,0.00,-3.4,9.7,"21:31:14",1
"23/12/17","21:50",0.0,1.7,68.5,1020.1,247.0,2.3,4.9,237.0,0.00,-3.4,9.6,"21:41:16",1
"23/12/17","22:00",0.0,1.7,69.0,1020.1,262.6,2.2,4.7,241.1,0.00,-3.3,9.6,"21:57:34",1
"23/12/17","22:10",0.0,1.7,69.0,1020.4,268.9,2.2,4.1,241.8,0.00,-3.3,9.5,"22:06:12",1
"23/12/17","22:20",0.0,1.6,69.1,1020.1,280.7,1.7,2.6,256.6,0.00,-3.4,9.3,"22:11:02",1
"23/12/17","22:30",0.0,1.6,69.7,1020.1,277.2,2.0,4.8,240.5,0.00,-3.3,9.2,"22:28:30",1
"23/12/17","22:40",0.0,1.6,69.9,1020.1,253.8,2.5,3.9,235.5,0.00,-3.3,9.3,"22:39:16",1
"23/12/17","22:50",0.0,1.5,70.2,1019.9,264.0,2.1,3.7,244.8,0.00,-3.3,9.3,"22:44:38",1
"23/12/17","23:00",0.0,1.4,70.6,1019.9,262.1,2.1,3.9,221.5,0.00,-3.3,9.3,"22:58:08",1
"23/12/17","23:10",0.0,1.3,70.9,1019.7,279.8,2.0,3.9,330.8,0.00,-3.4,9.2,"23:05:50",1
"23/12/17","23:20",0.0,1.3,71.3,1020.4,261.5,2.1,3.6,257.9,0.00,-3.3,9.1,"23:14:02",1
"23/12/17","23:30",0.0,1.0,72.1,1019.9,285.1,1.7,3.1,288.2,0.00,-3.4,9.3,"23:29:20",1
"23/12/17","23:40",0.0,1.1,72.6,1019.4,266.5,2.0,4.2,260.6,0.00,-3.2,9.2,"23:32:32",1
"23/12/17","23:50",0.0,1.1,73.0,1019.7,251.1,1.8,4.3,236.0,0.00,-3.2,9.2,"23:44:56",1
"23/12/17","24:00",0.0,0.9,73.5,1019.7,272.9,0.8,1.7,315.7,0.00,-3.3,9.2,"23:57:44",1
